Location: Rounton
(54.4000°N, 1.3500°W)
Time: 08:03:10
(UTC+00:00)

Tiros 1 despin weight - Pass Details

Date: 03 December 2021
Orbit: 592 x 641 km, 48.2° (Epoch: 19 January)

Event Time Altitude Azimuth Distance (km) Brightness Sun altitude
Rises 18:26:56 0° 271° (W) 2,827 ? -22.4°
Reaches altitude 10° 18:29:40 10° 254° (WSW) 1,924 ? -22.8°
Maximum altitude 18:32:54 20° 207° (SSW) 1,380 ? -23.3°
Enters shadow 18:35:06 14° 171° (S) 1,655 ? -23.6°
Drops below altitude 10° 18:36:09 10° 159° (SSE) 1,929 - -23.7°
Sets 18:38:54 0° 143° (SE) 2,836 - -24.1°
